Weather History for KVOK - April, 2014

Change the Weather History Date:

Sunday, April 6, 2014

  Actual Average Record
Temperature  
Mean Temperature 45 °F -  
Max Temperature 63 °F 49 °F 73 °F (2005)
Min Temperature 28 °F 32 °F 13 °F (2007)
Degree Days  
Heating Degree Days 20    
Moisture  
Dew Point 33 °F    
Average Humidity 58    
Maximum Humidity 97    
Minimum Humidity 37    
Precipitation  
Precipitation 0.00 in - - ()
Sea Level Pressure  
Sea Level Pressure 29.98 in    
Wind  
Wind Speed 6 mph (SSW)    
Max Wind Speed 17 mph    
Max Gust Speed 24 mph    
Visibility 10 miles    
Events      
Averages and records for this station are not official NWS values.
T = Trace of Precipitation, MM = Missing Value Source: NWS Daily Summary

Daily Weather History Graph

Daily Weather History Graph

Search for Another Location

Airport or City:

Trip Planner

Search our weather history database for the weather conditions in past years. The results will help you decide how hot, cold, wet, or windy it might be!

Date:

Astronomy

Apr. 06, 2014 Rise Set
Actual Time 6:33 AM CDT 7:34 PM CDT
Civil Twilight 6:04 AM CDT 8:03 PM CDT
Nautical Twilight 5:29 AM CDT 8:38 PM CDT
Astronomical Twilight 4:52 AM CDT 9:15 PM CDT
Moon 11:28 AM CDT (4/6) 1:36 AM CDT (4/6)
Length of Visible Light 13h 59m
Length of Day
13h 00m
Waxing Crescent, 44% of the Moon is Illuminated
Apr 6
Waxing Crescent
Apr 7
First Quarter
Apr 15
Full
Apr 22
Last Quarter
Apr 29
New

Hourly Weather History & Observations

Time (CDT) Temp. Windchill Dew Point Humidity Pressure Visibility Wind Dir Wind Speed Gust Speed Precip Events Conditions
12:58 AM 29.5 °F - 25.3 °F 85% 30.09 in 10.0 mi Calm Calm - N/A   Mostly Cloudy
1:58 AM 28.4 °F - 27.7 °F 97% 30.09 in 10.0 mi NE 2.3 mph - N/A   Overcast
2:58 AM 30.4 °F - 27.5 °F 89% 30.06 in 10.0 mi Calm Calm - N/A   Overcast
3:58 AM 37.0 °F 33.3 °F 27.5 °F 68% 30.05 in 10.0 mi South 4.6 mph - N/A   Partly Cloudy
4:58 AM 39.2 °F 34.2 °F 27.7 °F 63% 30.05 in 10.0 mi SSW 6.9 mph - N/A   Overcast
5:58 AM 39.4 °F 34.5 °F 28.0 °F 64% 30.05 in 10.0 mi SSW 6.9 mph - N/A   Overcast
6:58 AM 40.5 °F 34.6 °F 28.8 °F 63% 30.05 in 10.0 mi SSW 9.2 mph - N/A   Overcast
7:58 AM 42.8 °F 39.3 °F 28.4 °F 57% 30.05 in 10.0 mi SSW 5.8 mph - N/A   Mostly Cloudy
8:58 AM 44.6 °F 39.2 °F 30.2 °F 57% 30.04 in 10.0 mi SSW 10.4 mph - N/A   Mostly Cloudy
9:58 AM 46.4 °F 42.4 °F 30.2 °F 53% 30.04 in 10.0 mi South 8.1 mph - N/A   Mostly Cloudy
10:58 AM 51.8 °F - 32.0 °F 47% 30.01 in 10.0 mi SSE 11.5 mph - N/A   Mostly Cloudy
11:58 AM 55.4 °F - 33.8 °F 44% 29.99 in 10.0 mi South 12.7 mph - N/A   Mostly Cloudy
12:58 PM 57.2 °F - 33.8 °F 41% 29.96 in 10.0 mi South 17.3 mph 23.0 mph N/A   Mostly Cloudy
1:58 PM 60.8 °F - 35.6 °F 39% 29.93 in 10.0 mi SSW 12.7 mph 18.4 mph N/A   Mostly Cloudy
2:58 PM 62.6 °F - 35.6 °F 37% 29.91 in 10.0 mi SW 11.5 mph 24.2 mph N/A   Mostly Cloudy
3:58 PM 62.2 °F - 36.3 °F 38% 29.88 in 10.0 mi SW 12.7 mph 17.3 mph N/A   Partly Cloudy
4:58 PM 62.4 °F - 37.0 °F 39% 29.87 in 10.0 mi WSW 15.0 mph 23.0 mph N/A   Clear
5:58 PM 59.5 °F - 37.0 °F 43% 29.89 in 10.0 mi SSW 15.0 mph 20.7 mph N/A   Mostly Cloudy
6:58 PM 57.2 °F - 37.8 °F 48% 29.90 in 10.0 mi SW 11.5 mph - N/A   Mostly Cloudy
7:58 PM 54.7 °F - 38.3 °F 54% 29.90 in 10.0 mi SSW 3.5 mph - N/A   Mostly Cloudy
8:58 PM 47.5 °F - 37.2 °F 68% 29.93 in 10.0 mi South 3.5 mph - N/A   Scattered Clouds
9:58 PM 50.4 °F - 38.1 °F 63% 29.92 in 10.0 mi NW 2.3 mph - N/A   Mostly Cloudy
10:58 PM 50.0 °F - 37.8 °F 63% 29.92 in 10.0 mi SSE 6.9 mph - N/A   Overcast
11:58 PM 48.4 °F - 36.3 °F 63% 29.90 in 10.0 mi South 3.5 mph - N/A   Mostly Cloudy